TimeCDT,TemperatureF,Dew PointF,Humidity,Sea Level PressureIn,VisibilityMPH,Wind Direction,Wind SpeedMPH,Gust SpeedMPH,PrecipitationIn,Events,Conditions,WindDirDegrees,DateUTC
12:12 AM,64.4,57.2,77,30.03,10.0,Calm,Calm,-,N/A,,Clear,0,2013-07-25 05:12:00
12:32 AM,66.2,55.4,68,30.03,10.0,Calm,Calm,-,N/A,,Clear,0,2013-07-25 05:32:00
12:53 AM,66.2,55.4,68,30.03,10.0,Calm,Calm,-,N/A,,Clear,0,2013-07-25 05:53:00
1:12 AM,64.4,55.4,73,30.02,10.0,Calm,Calm,-,N/A,,Clear,0,2013-07-25 06:12:00
1:32 AM,64.4,55.4,73,30.02,10.0,Calm,Calm,-,N/A,,Clear,0,2013-07-25 06:32:00
1:53 AM,62.6,57.2,82,30.02,10.0,Calm,Calm,-,N/A,,Clear,0,2013-07-25 06:53:00
2:12 AM,62.6,57.2,82,30.02,10.0,Calm,Calm,-,N/A,,Clear,0,2013-07-25 07:12:00
2:32 AM,64.4,57.2,77,30.02,10.0,SSW,4.6,-,N/A,,Clear,210,2013-07-25 07:32:00
2:53 AM,64.4,57.2,77,30.01,10.0,SSW,4.6,-,N/A,,Clear,210,2013-07-25 07:53:00
3:12 AM,64.4,57.2,77,30.00,10.0,SSW,10.4,-,N/A,,Clear,210,2013-07-25 08:12:00
3:32 AM,64.4,57.2,77,30.00,10.0,SSW,6.9,-,N/A,,Clear,210,2013-07-25 08:32:00
3:53 AM,64.4,57.2,77,30.00,10.0,SW,8.1,-,N/A,,Clear,230,2013-07-25 08:53:00
4:12 AM,64.4,57.2,77,30.00,10.0,WSW,6.9,-,N/A,,Clear,240,2013-07-25 09:12:00
4:32 AM,64.4,57.2,77,30.00,10.0,SW,8.1,-,N/A,,Clear,230,2013-07-25 09:32:00
4:53 AM,64.4,57.2,77,30.00,10.0,WSW,4.6,-,N/A,,Clear,250,2013-07-25 09:53:00
5:12 AM,62.6,57.2,82,30.00,10.0,WSW,3.5,-,N/A,,Clear,240,2013-07-25 10:12:00
5:32 AM,62.6,57.2,82,30.00,10.0,Calm,Calm,-,N/A,,Clear,0,2013-07-25 10:32:00
5:53 AM,62.6,57.2,82,30.00,10.0,Calm,Calm,-,N/A,,Clear,0,2013-07-25 10:53:00
6:12 AM,62.6,57.2,82,30.00,10.0,SW,4.6,-,N/A,,Clear,230,2013-07-25 11:12:00
6:32 AM,64.4,57.2,77,30.00,10.0,SW,6.9,-,N/A,,Clear,230,2013-07-25 11:32:00
6:53 AM,64.4,59.0,83,30.01,10.0,SW,8.1,-,N/A,,Clear,230,2013-07-25 11:53:00
7:12 AM,66.2,59.0,78,30.01,10.0,SW,9.2,-,N/A,,Clear,230,2013-07-25 12:12:00
7:32 AM,68.0,60.8,78,30.01,10.0,SW,11.5,-,N/A,,Clear,230,2013-07-25 12:32:00
7:53 AM,69.8,60.8,73,30.01,10.0,SW,10.4,16.1,N/A,,Clear,230,2013-07-25 12:53:00
8:12 AM,71.6,60.8,69,30.00,10.0,SW,13.8,18.4,N/A,,Clear,220,2013-07-25 13:12:00
8:32 AM,73.4,62.6,69,30.00,10.0,SW,12.7,17.3,N/A,,Clear,220,2013-07-25 13:32:00
8:53 AM,73.4,62.6,69,30.00,10.0,WSW,10.4,-,N/A,,Clear,240,2013-07-25 13:53:00
9:12 AM,75.2,62.6,65,30.00,10.0,SW,12.7,-,N/A,,Clear,230,2013-07-25 14:12:00
9:32 AM,77.0,62.6,61,30.00,10.0,WSW,12.7,-,N/A,,Clear,240,2013-07-25 14:32:00
9:53 AM,78.8,62.6,57,30.00,10.0,SW,10.4,-,N/A,,Clear,230,2013-07-25 14:53:00
10:12 AM,78.8,62.6,57,30.00,10.0,SW,11.5,-,N/A,,Clear,230,2013-07-25 15:12:00
10:32 AM,78.8,64.4,61,30.00,10.0,SW,11.5,-,N/A,,Clear,230,2013-07-25 15:32:00
10:53 AM,78.8,64.4,61,30.01,10.0,SW,11.5,17.3,N/A,,Clear,230,2013-07-25 15:53:00
11:12 AM,78.8,64.4,61,30.01,10.0,SSW,9.2,-,N/A,,Clear,210,2013-07-25 16:12:00
11:32 AM,80.6,64.4,58,30.01,10.0,SSW,10.4,-,N/A,,Clear,200,2013-07-25 16:32:00
11:53 AM,80.6,64.4,58,30.01,10.0,WSW,10.4,-,N/A,,Clear,240,2013-07-25 16:53:00
12:12 PM,80.6,64.4,58,30.00,10.0,WSW,8.1,-,N/A,,Clear,240,2013-07-25 17:12:00
12:33 PM,80.6,64.4,58,30.01,10.0,WSW,8.1,-,N/A,,Clear,250,2013-07-25 17:33:00
12:52 PM,82.4,64.4,54,30.00,10.0,WSW,6.9,-,N/A,,Clear,240,2013-07-25 17:52:00
1:12 PM,82.4,66.2,58,29.99,10.0,WSW,6.9,-,N/A,,Clear,250,2013-07-25 18:12:00
1:33 PM,82.4,64.4,54,29.99,10.0,SW,4.6,-,N/A,,Scattered Clouds,230,2013-07-25 18:33:00
1:52 PM,82.4,64.4,54,29.98,10.0,West,6.9,-,N/A,,Scattered Clouds,270,2013-07-25 18:52:00
2:12 PM,82.4,64.4,54,29.98,10.0,West,3.5,-,N/A,,Scattered Clouds,270,2013-07-25 19:12:00
2:33 PM,82.4,66.2,58,29.97,10.0,West,10.4,-,N/A,,Scattered Clouds,280,2013-07-25 19:33:00
2:52 PM,77.0,68.0,74,29.97,10.0,NW,10.4,-,N/A,Rain-Thunderstorm,Light Thunderstorms and Rain,320,2013-07-25 19:52:00
3:12 PM,73.4,62.6,69,29.97,10.0,WNW,9.2,24.2,0.02,Rain-Thunderstorm,Light Thunderstorms and Rain,300,2013-07-25 20:12:00
3:33 PM,73.4,68.0,83,29.98,10.0,North,8.1,-,0.02,,Scattered Clouds,10,2013-07-25 20:33:00
3:52 PM,78.8,64.4,61,29.97,10.0,NNE,13.8,-,0.02,,Scattered Clouds,20,2013-07-25 20:52:00
4:12 PM,77.0,62.6,61,29.96,10.0,NNE,10.4,-,N/A,,Clear,20,2013-07-25 21:12:00
4:33 PM,78.8,64.4,61,29.96,10.0,NNE,9.2,-,N/A,,Clear,30,2013-07-25 21:33:00
4:52 PM,78.8,66.2,65,29.97,10.0,NE,9.2,16.1,N/A,,Clear,40,2013-07-25 21:52:00
5:12 PM,80.6,64.4,58,29.96,10.0,NE,8.1,17.3,N/A,,Scattered Clouds,40,2013-07-25 22:12:00
5:33 PM,80.6,64.4,58,29.95,10.0,NE,8.1,-,N/A,,Clear,50,2013-07-25 22:33:00
5:52 PM,78.8,64.4,61,29.96,10.0,NE,6.9,-,N/A,,Clear,50,2013-07-25 22:52:00
6:13 PM,77.0,64.4,65,29.96,10.0,Calm,Calm,-,N/A,,Clear,0,2013-07-25 23:13:00
6:32 PM,78.8,64.4,61,29.95,10.0,ENE,4.6,-,N/A,,Clear,70,2013-07-25 23:32:00
6:52 PM,78.8,64.4,61,29.95,10.0,ENE,4.6,-,N/A,,Clear,60,2013-07-25 23:52:00
7:13 PM,78.8,66.2,65,29.95,10.0,ENE,3.5,-,N/A,,Clear,70,2013-07-26 00:13:00
7:32 PM,77.0,66.2,69,29.95,10.0,East,3.5,-,N/A,,Clear,90,2013-07-26 00:32:00
7:52 PM,73.4,66.2,78,29.96,10.0,Calm,Calm,-,N/A,,Clear,0,2013-07-26 00:52:00
8:13 PM,73.4,66.2,78,29.97,10.0,Calm,Calm,-,N/A,,Clear,0,2013-07-26 01:13:00
8:32 PM,73.4,66.2,78,29.97,10.0,Calm,Calm,-,N/A,,Clear,0,2013-07-26 01:32:00
8:52 PM,71.6,66.2,83,29.97,10.0,Calm,Calm,-,N/A,,Clear,0,2013-07-26 01:52:00
9:13 PM,71.6,66.2,83,29.98,10.0,Calm,Calm,-,N/A,,Clear,0,2013-07-26 02:13:00
9:32 PM,69.8,64.4,83,29.99,10.0,Calm,Calm,-,N/A,,Clear,0,2013-07-26 02:32:00
9:52 PM,69.8,62.6,78,30.00,10.0,SSE,3.5,-,N/A,,Clear,150,2013-07-26 02:52:00
10:13 PM,69.8,62.6,78,30.00,10.0,South,3.5,-,N/A,,Clear,170,2013-07-26 03:13:00
10:32 PM,68.0,62.6,83,30.00,10.0,Calm,Calm,-,N/A,,Scattered Clouds,0,2013-07-26 03:32:00
10:52 PM,66.2,62.6,88,29.99,10.0,Calm,Calm,-,N/A,,Scattered Clouds,0,2013-07-26 03:52:00
11:13 PM,66.2,62.6,88,29.98,10.0,Calm,Calm,-,N/A,,Scattered Clouds,0,2013-07-26 04:13:00
11:32 PM,64.4,60.8,88,29.98,10.0,Calm,Calm,-,N/A,,Clear,0,2013-07-26 04:32:00
11:53 PM,64.4,60.8,88,29.98,10.0,Calm,Calm,-,N/A,,Scattered Clouds,0,2013-07-26 04:53:00